STARLINK-31215, 58872

Orbit data source: Space-Track

STARLINK-31215, 58872 is a payload satellite owned by SpaceX/Seattle (US) in LEO that was launched on Mon, 29 Jan 2024 UTC via an FALCON 9 launch vehicle from the Air Force Eastern Test Range (AFETR). Payload-class satellites include a variety of spacecraft equipped with specific instruments for various scientific and technological missions. These include communications satellites like Starlink; space stations such as the ISS; scientific satellites like the Hubble; Earth observation satellites from companies like Planet Labs, Umbra, and HawkEye 360; GPS; miniature CubeSats for education and research; and military/defense satellites.

Loading next visibility...
Identifier
58872, 2024-019V
Orbit
LEO
Country
Flag of USUS
Related business
Manufacturer
SpaceX/Seattle
Mission
Operational Commercial Communications
Bus & Motor
STARLINK V2M, Unknown motor
Mass
730 kg wet, ~700 kg dry
Launch date (UTC)
2024-01-29 (2 years ago)
Launch vehicle
FALCON 9
Launch site
Air Force Eastern Test Range (AFETR)
Object type
Payload
Rocket body
Debris
Shape & HBR
Box + 2 Pan, 17.7 m
Radar Cross Section
33.884 m², Large (>1 m²)

Expand to show TLE details & history
Last TLE update: 2 days ago

TLE from 2 days ago
0 STARLINK-31215
1 58872U 24019V   26171.01217014  .00000298  00000-0  20327-4 0  9996
2 58872  43.0031  30.8604 0000388  73.9075 286.1820 15.27578528134717
Epoch: 2026-06-20T00:17Z
TLE epoch observation values (Epoch: 2026-06-20T00:17:31.500Z)
Latitude
0.00004°
Longitude
118.24628°
Altitude
482.755 km
Speed
7.626 km/s
True Right ascension
02h 03m 26s
True Declination
0° 00' 00"
Sunlit
Object was in daylight at epoch
Visualization orbit readout
Latitude
Unknown
Longitude
Unknown
Altitude
Unknown
Speed
Unknown
Apparent Right ascension
Unknown
Apparent Declination
Unknown
Sunlit
N/A
Visualization observer readout
Local Sidereal Time
23:07:40
Azimuth
Unknown
Elevation
Unknown
Doppler factor
Unknown
Orbital elements
Apogee altitude
485.264 km
Perigee altitude
484.732 km
Semi-major axis
6,863.135 km
Eccentricity
0.00004
Inclination
43.0031°
RAAN
30.8604°
Arg. of periapsis
73.9075°
True anomaly
286.17773°
Mean anomaly
286.182°
Eccentric anomaly
286.17986°
Mean motion
3.81733 °/min
Orbital period
94.31 mins
BSTAR
0.000020327
Loading maneuver chart data...
Computing Atmospheric mass density...
Loading historical data...
Loading historical data...
Loading historical data...
Loading historical data...
Loading historical data...
Loading historical data...
Loading historical data...

Documentation

Showing up to 5 results
|